CW2969 Weather Reports


Display with metric or nautical units.
time (UTC)temp
F
wind
direction
speed
MPH
gust
MPH
rain 1hr
in
rain 24hr
in
rain mn
in
humidity
%
barometer
mb
20260905185507 96 213 2.0 6.0 0.00 0.00 0.00 48 1011.6
20260905185007 96 119 1.0 5.0 0.00 0.00 0.00 48 1011.7
20260905184507 96 113 4.0 6.0 0.00 0.00 0.00 49 1011.9
20260905184007 95 108 3.0 6.0 0.00 0.00 0.00 49 1011.9
20260905183507 95 228 2.0 4.0 0.00 0.00 0.00 51 1011.9
20260905183007 95 309 2.0 7.0 0.00 0.00 0.00 51 1012.0
20260905182507 95 190 5.0 7.0 0.00 0.00 0.00 51 1012.2
20260905182007 95 197 3.0 4.0 0.00 0.00 0.00 51 1012.3
20260905181507 94 155 1.0 6.0 0.00 0.00 0.00 51 1012.4
20260905181007 94 159 5.0 8.0 0.00 0.00 0.00 52 1012.5
20260905180507 94 111 3.0 8.0 0.00 0.00 0.00 53 1012.7
20260905175507 93 186 4.0 8.0 0.00 0.00 0.00 56 1012.8
20260905175007 93 171 5.0 8.0 0.00 0.00 0.00 57 1012.9
20260905174507 93 302 3.0 8.0 0.00 0.00 0.00 57 1013.0
20260905173507 93 178 4.0 6.0 0.00 0.00 0.00 59 1013.3
20260905173006 92 177 2.0 6.0 0.00 0.00 0.00 59 1013.3
20260905172507 92 347 1.0 5.0 0.00 0.00 0.00 61 1013.3
20260905172006 92 312 0.0 4.0 0.00 0.00 0.00 62 1013.4
20260905170006 91 276 2.0 4.0 0.00 0.00 0.00 64 1013.5
20260905165006 90 236 5.0 10.0 0.00 0.00 0.00 65 1013.5
20260905164506 90 92 2.0 7.0 0.00 0.00 0.00 66 1013.6
20260905164006 90 130 3.0 8.0 0.00 0.00 0.00 66 1013.6
20260905163006 89 96 1.0 8.0 0.00 0.00 0.00 68 1013.7
20260905162506 89 143 1.0 4.0 0.00 0.00 0.00 70 1013.8
20260905162006 88 172 2.0 5.0 0.00 0.00 0.00 70 1013.8
20260905161506 88 224 3.0 7.0 0.00 0.00 0.00 70 1013.8
20260905161006 88 244 2.0 7.0 0.00 0.00 0.00 70 1013.8
20260905155506 87 200 2.0 4.0 0.00 0.00 0.00 72 1013.8
20260905155006 87 298 0.0 8.0 0.00 0.00 0.00 73 1013.8
20260905154005 87 192 1.0 5.0 0.00 0.00 0.00 74 1013.8
20260905153505 87 198 1.0 5.0 0.00 0.00 0.00 74 1013.8
20260905153005 86 136 2.0 5.0 0.00 0.00 0.00 76 1013.8
20260905152505 86 347 2.0 4.0 0.00 0.00 0.00 77 1013.7
20260905152005 85 289 2.0 5.0 0.00 0.00 0.00 77 1013.8
20260905151505 85 192 5.0 5.0 0.00 0.00 0.00 77 1013.9
20260905151005 85 167 1.0 3.0 0.00 0.01 0.00 78 1013.9
20260905150505 84 191 3.0 4.0 0.00 0.01 0.00 78 1013.8
20260905150005 84 269 3.0 4.0 0.00 0.01 0.00 78 1013.8
20260905145504 84 196 2.0 4.0 0.00 0.02 0.00 79 1013.8
20260905145005 84 271 2.0 3.0 0.00 0.02 0.00 79 1013.8
20260905144505 84 323 3.0 3.0 0.00 0.02 0.00 79 1013.8
20260905144005 84 126 0.0 1.0 0.00 0.02 0.00 79 1013.8
20260905143504 84 158 0.0 2.0 0.00 0.02 0.00 80 1013.7
20260905143004 84 227 1.0 5.0 0.00 0.02 0.00 80 1013.8
20260905142504 83 181 2.0 5.0 0.00 0.02 0.00 80 1013.7
20260905142004 83 225 0.0 3.0 0.00 0.02 0.00 80 1013.7
20260905141534 83 136 2.0 3.0 0.00 0.02 0.00 80 1013.6
20260905140034 82 157 2.0 3.0 0.00 0.02 0.00 81 1013.5
20260905135534 81 130 0.0 1.0 0.00 0.02 0.00 81 1013.5
20260905135034 81 178 1.0 1.0 0.00 0.02 0.00 81 1013.5
20260905134534 81 134 0.0 0.0 0.00 0.02 0.00 81 1013.5
20260905134034 81 124 0.0 3.0 0.00 0.02 0.00 81 1013.4
20260905133034 80 124 0.0 4.0 0.00 0.02 0.00 81 1013.3
20260905132534 80 142 3.0 4.0 0.00 0.02 0.00 81 1013.3
20260905132034 80 145 0.0 0.0 0.00 0.02 0.00 81 1013.2
20260905131534 80 104 0.0 3.0 0.00 0.02 0.00 81 1013.2
20260905131034 79 104 3.0 3.0 0.00 0.02 0.00 82 1013.1
20260905130534 79 113 0.0 3.0 0.00 0.02 0.00 82 1013.2
20260905130034 79 142 0.0 0.0 0.00 0.02 0.00 82 1013.0
20260905125533 78 142 0.0 0.0 0.00 0.02 0.00 82 1013.0
20260905125034 78 142 0.0 0.0 0.00 0.02 0.00 82 1012.9
20260905124533 78 142 0.0 0.0 0.00 0.02 0.00 82 1012.8
20260905124034 78 142 0.0 0.0 0.00 0.02 0.00 82 1012.7
20260905123033 78 142 0.0 0.0 0.00 0.02 0.00 82 1012.8
20260905122533 78 142 0.0 0.0 0.00 0.02 0.00 82 1012.8
20260905122033 78 142 0.0 0.0 0.00 0.02 0.00 82 1012.7
20260905121534 78 142 0.0 0.0 0.00 0.02 0.00 82 1012.7
20260905121033 78 142 0.0 0.0 0.00 0.02 0.00 82 1012.6
20260905120033 78 142 0.0 0.0 0.00 0.02 0.00 82 1012.6
20260905115533 78 142 0.0 0.0 0.00 0.02 0.00 82 1012.5
20260905115033 78 142 0.0 0.0 0.00 0.02 0.00 82 1012.4
20260905114533 78 142 0.0 0.0 0.00 0.02 0.00 82 1012.5
20260905114033 78 142 0.0 0.0 0.00 0.02 0.00 82 1012.4
20260905113533 78 142 0.0 0.0 0.00 0.02 0.00 82 1012.4
20260905112533 78 142 0.0 0.0 0.00 0.02 0.00 82 1012.4
20260905112032 78 142 0.0 0.0 0.00 0.02 0.00 81 1012.4
20260905111532 78 142 0.0 0.0 0.00 0.02 0.00 81 1012.3
20260905111033 78 142 0.0 0.0 0.00 0.02 0.00 81 1012.2
20260905110533 78 142 0.0 0.0 0.00 0.02 0.00 81 1012.2
20260905110032 78 142 0.0 0.0 0.00 0.02 0.00 81 1012.2
20260905105532 78 142 0.0 0.0 0.00 0.02 0.00 81 1012.2
20260905105032 78 142 0.0 0.0 0.00 0.02 0.00 81 1012.1
20260905104032 78 142 0.0 0.0 0.00 0.02 0.00 81 1012.1
20260905103532 78 142 0.0 0.0 0.00 0.02 0.00 81 1012.1
20260905103032 78 142 0.0 0.0 0.00 0.02 0.00 81 1012.1
20260905102532 78 142 0.0 0.0 0.00 0.02 0.00 81 1012.1
20260905102032 78 142 0.0 0.0 0.00 0.02 0.00 81 1012.2
20260905101531 78 142 0.0 0.0 0.00 0.02 0.00 81 1012.2
20260905101032 78 142 0.0 0.0 0.00 0.02 0.00 81 1012.1
20260905100532 78 142 0.0 0.0 0.00 0.02 0.00 81 1012.0
20260905100031 79 142 0.0 0.0 0.00 0.02 0.00 81 1012.0
20260905095531 79 142 0.0 0.0 0.00 0.02 0.00 81 1011.9
20260905095002 79 142 0.0 0.0 0.00 0.02 0.00 81 1011.9
20260905094531 79 142 0.0 0.0 0.00 0.02 0.00 80 1011.9
20260905094032 79 142 0.0 0.0 0.00 0.02 0.00 80 1011.9
20260905093031 79 142 0.0 0.0 0.00 0.02 0.00 80 1011.9
20260905092531 79 142 0.0 0.0 0.00 0.02 0.00 80 1011.9
20260905092031 79 142 0.0 0.0 0.00 0.02 0.00 80 1011.9
20260905090531 80 125 0.0 0.0 0.00 0.02 0.00 80 1012.0
20260905090031 80 233 0.0 0.0 0.00 0.02 0.00 80 1012.0
20260905085531 80 204 0.0 0.0 0.00 0.02 0.00 80 1011.9
20260905085031 80 200 0.0 2.0 0.00 0.02 0.00 80 1012.0
20260905084031 80 215 0.0 0.0 0.00 0.02 0.00 80 1012.0
20260905083531 80 207 0.0 1.0 0.00 0.02 0.00 80 1012.0
20260905083030 80 218 0.0 2.0 0.00 0.02 0.00 80 1012.1
20260905082531 80 215 1.0 2.0 0.00 0.02 0.00 80 1012.1
20260905081530 80 157 0.0 3.0 0.00 0.02 0.00 80 1012.2
20260905081030 80 215 1.0 3.0 0.00 0.02 0.00 80 1012.2
20260905080530 80 242 0.0 1.0 0.00 0.02 0.00 79 1012.3
20260905080030 80 197 1.0 1.0 0.00 0.02 0.00 79 1012.3
20260905075030 80 222 0.0 0.0 0.00 0.02 0.00 79 1012.3
20260905073530 80 221 0.0 1.0 0.00 0.02 0.00 79 1012.3
20260905072530 80 194 0.0 0.0 0.00 0.02 0.00 78 1012.5
20260905072029 80 194 0.0 1.0 0.00 0.02 0.00 78 1012.6
20260905071529 81 194 0.0 2.0 0.00 0.02 0.00 78 1012.6
20260905071030 81 194 1.0 4.0 0.00 0.02 0.00 78 1012.6
20260905070530 81 216 1.0 4.0 0.00 0.02 0.00 78 1012.6
20260905065029 81 206 0.0 1.0 0.00 0.02 0.00 77 1012.6
20260905064029 81 192 1.0 2.0 0.00 0.02 0.00 77 1012.6
20260905063529 81 225 1.0 1.0 0.00 0.02 0.00 76 1012.7
20260905062529 81 225 0.0 0.0 0.00 0.02 0.00 76 1012.7
20260905061529 81 227 0.0 3.0 0.00 0.02 0.00 76 1012.7
20260905061029 82 130 0.0 1.0 0.00 0.02 0.00 75 1012.8
20260905060529 82 182 0.0 2.0 0.00 0.02 0.00 75 1012.8
20260905060029 82 182 0.0 2.0 0.00 0.02 0.00 75 1012.7
20260905055029 82 210 0.0 1.0 0.00 0.02 0.00 74 1012.7
20260905054529 82 157 1.0 1.0 0.00 0.02 0.00 74 1012.7
20260905053529 82 195 1.0 2.0 0.00 0.02 0.00 74 1012.8
20260905053029 83 142 2.0 2.0 0.00 0.02 0.00 73 1012.8
20260905052529 83 142 0.0 2.0 0.00 0.02 0.00 73 1012.8
20260905052028 83 248 0.0 2.0 0.00 0.02 0.00 73 1012.8
20260905051528 83 166 0.0 2.0 0.00 0.02 0.00 73 1012.8
20260905051029 83 202 0.0 2.0 0.00 0.02 0.00 73 1012.8
20260905050528 83 178 1.0 2.0 0.00 0.02 0.00 72 1012.7
20260905050028 83 244 0.0 2.0 0.00 0.02 0.00 72 1012.8
20260905045528 83 109 1.0 2.0 0.00 0.02 0.02 72 1012.8
20260905045028 84 159 0.0 4.0 0.00 0.02 0.02 72 1012.7
20260905044528 84 104 2.0 4.0 0.00 0.02 0.02 71 1012.7
20260905044028 84 150 1.0 4.0 0.00 0.02 0.02 71 1012.7
20260905043528 84 106 0.0 1.0 0.00 0.02 0.02 71 1012.7
20260905043028 84 118 0.0 1.0 0.00 0.02 0.02 71 1012.8
20260905042528 84 115 0.0 3.0 0.00 0.02 0.02 71 1012.8
20260905042028 84 130 2.0 3.0 0.00 0.02 0.02 70 1012.7
20260905041528 84 144 1.0 3.0 0.00 0.02 0.02 70 1012.7
20260905041028 84 141 0.0 5.0 0.00 0.02 0.02 70 1012.6
20260905040528 84 158 3.0 6.0 0.00 0.02 0.02 70 1012.7
20260905040028 85 165 1.0 6.0 0.00 0.02 0.02 70 1012.7
20260905035528 85 135 1.0 6.0 0.00 0.02 0.02 69 1012.6
20260905035027 85 111 3.0 6.0 0.00 0.02 0.02 69 1012.6
20260905034528 85 175 1.0 4.0 0.00 0.02 0.02 69 1012.7
20260905033528 85 152 0.0 7.0 0.00 0.02 0.02 69 1012.7
20260905033028 85 118 3.0 7.0 0.00 0.02 0.02 68 1012.6
20260905032527 85 117 2.0 2.0 0.00 0.02 0.02 68 1012.6
20260905032027 85 155 2.0 2.0 0.00 0.02 0.02 67 1012.5
20260905031027 86 143 1.0 4.0 0.00 0.02 0.02 67 1012.3
20260905030027 86 111 1.0 6.0 0.00 0.02 0.02 66 1012.3
20260905025528 86 128 4.0 6.0 0.00 0.02 0.02 66 1012.3
20260905025027 86 130 0.0 2.0 0.00 0.02 0.02 65 1012.2
20260905024527 86 130 2.0 3.0 0.00 0.02 0.02 65 1012.2
20260905024027 86 128 0.0 7.0 0.00 0.02 0.02 64 1012.2
20260905023527 86 154 4.0 7.0 0.00 0.02 0.02 64 1012.1
20260905023027 86 120 0.0 2.0 0.00 0.02 0.02 64 1012.1
20260905022527 86 103 0.0 2.0 0.00 0.02 0.02 64 1012.0
20260905021527 86 101 0.0 3.0 0.00 0.02 0.02 63 1011.7
20260905020527 86 122 3.0 6.0 0.00 0.02 0.02 63 1011.6
20260905020027 87 143 0.0 1.0 0.00 0.02 0.02 63 1011.6
20260905015527 87 143 1.0 1.0 0.00 0.02 0.02 63 1011.6
20260905015026 87 129 0.0 0.0 0.00 0.02 0.02 62 1011.6
20260905014526 87 129 0.0 3.0 0.00 0.02 0.02 62 1011.6
20260905014026 87 99 3.0 3.0 0.00 0.02 0.02 62 1011.7
20260905013527 87 277 0.0 2.0 0.00 0.02 0.02 62 1011.6
20260905013026 87 115 0.0 2.0 0.00 0.02 0.02 62 1011.5
20260905012026 88 150 1.0 6.0 0.00 0.02 0.02 61 1011.5
20260905011526 88 169 2.0 6.0 0.00 0.02 0.02 61 1011.6
20260905011026 88 249 0.0 6.0 0.00 0.02 0.02 61 1011.4
20260905010526 88 119 2.0 6.0 0.00 0.02 0.02 61 1011.3
20260905010026 89 131 5.0 5.0 0.00 0.02 0.02 61 1011.2
20260905005526 89 21 2.0 4.0 0.00 0.02 0.02 61 1011.1
20260905005026 89 104 3.0 5.0 0.00 0.02 0.02 60 1011.0
20260905004025 90 147 4.0 8.0 0.00 0.02 0.02 59 1011.0
20260905003525 90 248 2.0 8.0 0.00 0.02 0.02 59 1010.9
20260905003025 90 15 2.0 7.0 0.00 0.02 0.02 59 1010.9
20260905002526 90 143 5.0 7.0 0.00 0.02 0.02 59 1010.9
20260905002025 91 130 5.0 12.0 0.00 0.02 0.02 58 1010.9
20260905001525 91 133 7.0 12.0 0.00 0.02 0.02 58 1011.0
20260905001025 91 109 6.0 6.0 0.00 0.02 0.02 57 1010.9
20260905000525 91 113 4.0 4.0 0.00 0.02 0.02 57 1010.9
20260905000025 91 119 3.0 6.0 0.00 0.02 0.02 56 1010.7
20260904235525 91 74 2.0 6.0 0.00 0.02 0.02 56 1010.8
20260904235025 92 105 3.0 7.0 0.00 0.02 0.02 56 1010.8
20260904234525 92 105 2.0 7.0 0.00 0.02 0.02 56 1010.7
20260904234025 92 65 5.0 7.0 0.00 0.02 0.02 56 1010.7
20260904233525 92 139 3.0 6.0 0.00 0.02 0.02 56 1010.6
20260904233025 92 152 5.0 6.0 0.00 0.02 0.02 56 1010.7
20260904232525 92 269 1.0 5.0 0.00 0.02 0.02 56 1010.7
20260904232025 92 190 3.0 9.0 0.00 0.02 0.02 56 1010.7
20260904231525 92 97 2.0 9.0 0.00 0.02 0.02 56 1010.7
20260904230524 93 97 3.0 9.0 0.00 0.02 0.02 55 1010.7
20260904230024 93 86 2.0 9.0 0.00 0.02 0.02 55 1010.7
20260904225524 94 149 4.0 7.0 0.00 0.02 0.02 55 1010.7
20260904225024 94 198 1.0 9.0 0.00 0.02 0.02 54 1010.7
20260904224524 94 128 3.0 9.0 0.00 0.02 0.02 52 1010.7
20260904224024 94 218 2.0 8.0 0.00 0.02 0.02 53 1010.7
20260904223524 94 169 4.0 8.0 0.00 0.02 0.02 53 1010.8
20260904222523 94 219 5.0 7.0 0.00 0.02 0.02 54 1010.8
20260904221523 94 206 3.0 8.0 0.00 0.02 0.02 55 1010.7
20260904221023 94 121 1.0 6.0 0.00 0.02 0.02 55 1010.8
20260904220523 95 163 5.0 6.0 0.00 0.02 0.02 56 1010.8
20260904220024 95 288 3.0 7.0 0.00 0.02 0.02 57 1010.8
20260904215523 94 210 6.0 7.0 0.00 0.02 0.02 57 1010.8
20260904215023 94 155 4.0 6.0 0.00 0.02 0.02 58 1011.0
20260904214023 94 137 5.0 7.0 0.00 0.02 0.02 58 1011.1
20260904213523 93 178 2.0 6.0 0.00 0.02 0.02 59 1011.1
20260904213023 93 109 4.0 6.0 0.00 0.02 0.02 60 1011.2
20260904212523 92 144 4.0 4.0 0.00 0.02 0.02 60 1011.3
20260904212023 92 161 1.0 4.0 0.00 0.02 0.02 61 1011.3
20260904211523 91 135 1.0 3.0 0.00 0.02 0.02 63 1011.4
20260904211023 91 249 2.0 3.0 0.00 0.02 0.02 64 1011.5
20260904210523 90 126 0.0 7.0 0.00 0.02 0.02 64 1011.6
20260904210023 90 118 3.0 7.0 0.00 0.02 0.02 65 1011.5
20260904205523 90 85 1.0 10.0 0.00 0.02 0.02 65 1011.5
20260904204523 90 111 4.0 7.0 0.00 0.02 0.02 65 1011.9
20260904203523 90 106 7.0 9.0 0.00 0.02 0.02 67 1011.8
20260904203022 89 216 3.0 8.0 0.00 0.02 0.02 68 1012.0
20260904202022 89 141 2.0 4.0 0.00 0.02 0.02 69 1012.1
20260904201523 89 193 0.0 4.0 0.00 0.02 0.02 70 1012.1
20260904201023 88 127 1.0 4.0 0.00 0.02 0.02 70 1012.3
20260904200522 88 219 2.0 3.0 0.00 0.02 0.02 70 1012.3
20260904195522 88 105 1.0 4.0 0.00 0.02 0.02 71 1012.3
20260904195022 88 113 1.0 3.0 0.00 0.02 0.02 72 1012.3
20260904194522 87 111 0.0 4.0 0.00 0.02 0.02 72 1012.2
20260904194022 87 100 1.0 8.0 0.00 0.02 0.02 72 1012.3
20260904193522 87 221 4.0 8.0 0.00 0.02 0.02 72 1012.4
20260904193022 87 80 2.0 5.0 0.00 0.02 0.02 74 1012.4
20260904192522 86 119 5.0 5.0 0.00 0.02 0.02 74 1012.6
20260904192021 86 134 0.0 2.0 0.00 0.02 0.02 74 1012.6
20260904191522 86 113 0.0 3.0 0.00 0.02 0.02 75 1012.7
20260904191021 86 135 2.0 3.0 0.00 0.02 0.02 75 1012.7
20260904190522 86 68 1.0 3.0 0.00 0.02 0.02 76 1012.8
20260904190021 86 123 1.0 6.0 0.00 0.02 0.02 76 1013.0